[[{"header":{"parameterUnit":"m.s-1","parameterCategory":1,"la1":30.2991,"la2":30.254,"lo1":-89.0895,"lo2":-89.0444,"dy":0.0017,"dx":0.0017,"nx":28,"ny":28,"refTime":"2024-05-26T09:00:00:Z","depth":0,"parameterNumber":2,"parameterNumberName":"U-component_of_WINDS"},"data":[0,0,0,0,0,0,0,0,0,0,0,0,0,0,0,0,0,0,0,0,0,0,0,0,0,0,0,0,0,0,0,0,0,0,0,0,0,0,0,0,0,0,0,0,0,0,0,0,0,0,0,0,0,0,0,0,0,0,1.7076,1.7077,0,1.7153,1.7154,1.7155,1.7158,1.7157,1.7156,1.7155,1.7232,1.7235,1.7238,0,0,0,0,0,0,0,0,0,0,0,0,0,1.6929,1.6932,1.7076,1.7077,1.7078,1.7153,1.7154,1.7155,1.7158,1.7157,1.7155,1.7154,1.7231,1.7235,1.7238,0,0,0,0,0,0,0,0,0,0,0,0,0,1.6998,1.6933,1.7076,1.7089,1.709,1.7153,1.7154,1.7156,1.7158,1.7157,1.7155,1.7154,1.723,1.7235,1.7239,1.7294,0,0,1.7252,1.7254,0,0,0,0,0,0,0,0,1.6994,1.7004,1.7086,1.7088,1.709,1.7144,1.7131,1.7202,1.7158,1.7132,1.7155,1.7153,1.7204,1.7211,1.7228,1.7298,1.7301,1.7253,1.7255,1.7257,1.7259,0,0,0,0,0,0,0,1.699,1.7,1.7107,1.7087,1.709,1.7089,1.7098,1.7144,1.7175,1.7134,1.7135,1.7144,1.7205,1.7224,1.723,1.7302,1.7253,1.7257,1.7259,1.7261,1.7418,1.742,0,0,0,0,0,0,1.6983,1.6996,1.7104,1.7109,1.7038,1.7093,1.7102,1.7128,1.7175,1.718,1.7145,1.7144,1.7217,1.7225,1.7233,1.7298,1.7257,1.7261,1.7264,1.7417,1.7419,1.742,0,0,0,0,0,0,1.6979,1.6992,1.7101,1.7053,1.7067,1.7097,1.7126,1.7131,1.7149,1.7183,1.7188,1.7159,1.7216,1.7227,1.7278,1.7301,1.7263,1.7267,1.7415,1.7417,1.7419,1.7431,0,0,0,0,0,0,1.6975,1.6991,1.7013,1.7053,1.7069,1.7146,1.7128,1.7133,1.7157,1.7156,1.7197,1.7202,1.7216,1.7272,1.7283,1.7306,1.7271,1.7413,1.7416,1.7419,1.7429,1.7433,1.7437,0,0,0,0,0,1.697,1.7013,1.7014,1.7027,1.7097,1.7148,1.7157,1.7172,1.7159,1.7181,1.7202,1.7201,1.7297,1.7277,1.7289,1.7315,1.7412,1.7415,1.7418,1.7427,1.7432,1.7437,0,0,0,0,0,0,1.6975,1.7019,1.702,1.7078,1.7109,1.7148,1.7176,1.7178,1.7213,1.721,1.7227,1.7237,1.7287,1.7307,1.7283,1.7369,1.7353,1.7359,1.7355,1.7361,1.7365,1.7358,1.7275,0,0,0,0,0,1.6983,1.702,1.7057,1.7104,1.712,1.7145,1.7168,1.7177,1.7209,1.7222,1.7247,1.7278,1.7315,1.7339,1.7375,1.7432,1.744,1.7455,1.746,1.7463,1.7468,1.7497,1.7503,1.7432,1.7432,1.7431,0,0,1.6999,1.7028,1.7051,1.7106,1.7131,1.7168,1.7156,1.7197,1.7224,1.7228,1.7278,1.7297,1.7333,1.7387,1.7412,1.7404,1.7489,1.7468,1.747,1.7473,1.7501,1.7508,1.7514,1.7434,1.7434,1.7433,0,0,1.7048,1.7075,1.7116,1.7141,1.7179,1.7195,1.7205,1.7244,1.7257,1.7307,1.731,1.7343,1.7407,1.7432,1.7453,1.7509,1.7509,1.7521,1.7543,1.7571,1.7577,1.7582,1.76,1.7606,1.7525,1.7525,1.7525,0,1.7063,1.7121,1.7137,1.7177,1.72,1.7206,1.7247,1.7271,1.7318,1.7334,1.7325,1.7404,1.7429,1.7487,1.7501,1.7518,1.7529,1.7515,1.7575,1.758,1.7585,1.7602,1.7609,1.7526,1.7526,1.7526,1.7526,0,1.7137,1.7176,1.7205,1.7251,1.7277,1.7318,1.7339,1.7364,1.7371,1.7388,1.7438,1.7468,1.7509,1.7524,1.7531,1.7583,1.7576,1.7571,1.7554,1.7592,1.7609,1.7616,1.7528,1.7527,1.7527,1.7527,0,0,1.719,1.7244,1.7254,1.7273,1.7315,1.7346,1.7386,1.7426,1.7446,1.7479,1.7512,1.7565,1.756,1.7584,1.7593,1.7618,1.7658,1.761,1.7611,1.7616,1.7715,1.7717,1.7725,1.7659,1.7661,1.7662,1.7711,0,1.7242,1.7314,1.7329,1.739,1.7426,1.7431,1.7466,1.7494,1.7511,1.7543,1.7561,1.7598,1.7589,1.7603,1.7628,1.7648,1.7678,1.7645,1.7688,1.769,1.7677,1.7734,1.7737,1.7782,1.7718,1.7719,1.772,0,1.7312,1.7345,1.741,1.7445,1.7461,1.7492,1.7529,1.756,1.7592,1.7602,1.7628,1.7635,1.7675,1.7658,1.7713,1.769,1.7709,1.7721,1.7723,1.7726,1.7706,1.7736,1.7797,1.7803,1.7731,1.773,1.7729,0,1.7341,1.7403,1.7449,1.7466,1.7509,1.7531,1.7549,1.758,1.7603,1.7635,1.765,1.7687,1.7706,1.7734,1.775,1.7736,1.7803,1.7788,1.7811,1.7811,1.7824,1.7823,1.7886,1.7839,1.7839,1.7839,1.7839,0,1.7396,1.7435,1.7463,1.7491,1.7534,1.7551,1.7593,1.7612,1.7639,1.767,1.7677,1.7706,1.7726,1.7758,1.7771,1.7813,1.7822,1.7831,1.7833,1.7829,1.7827,1.784,1.7836,1.7841,1.7841,1.784,1.784,0,1.7436,1.7456,1.7507,1.7543,1.7553,1.7583,1.7614,1.7641,1.7657,1.7696,1.7706,1.7732,1.7769,1.7788,1.7835,1.7844,1.7891,1.7892,1.7879,1.788,1.7902,1.7899,1.7975,1.7984,1.7933,1.7933,1.7933,0,1.7469,1.7498,1.7538,1.7559,1.7578,1.7613,1.7636,1.7653,1.7676,1.7714,1.7736,1.7774,1.7805,1.7863,1.7886,1.7921,1.7922,1.7947,1.7928,1.7922,1.792,1.7917,1.792,1.7949,1.795,1.795,1.795,0,1.7524,1.7532,1.7565,1.7601,1.7628,1.7657,1.7686,1.7703,1.7725,1.7751,1.7789,1.7813,1.786,1.7896,1.7933,1.7951,1.7954,1.7956,1.7963,1.7958,1.7949,1.7952,1.7886,1.7954,1.7954,1.7954,1.7953,1.7953,1.7559,1.7585,1.7617,1.7653,1.7676,1.7703,1.7729,1.7749,1.7781,1.782,1.7829,1.7868,1.7898,1.7947,1.7967,1.7997,1.7992,1.8003,1.8005,1.8007,1.8007,1.7945,1.8004,1.8004,1.8004,1.8004,1.8004,0,1.7613,1.7633,1.7666,1.7706,1.7734,1.7735,1.7766,1.7789,1.7824,1.7852,1.7882,1.7924,1.7959,1.7984,1.802,1.8039,1.8041,1.8048,1.8046,1.8049,1.8011,1.8,1.8045,1.8045,1.8045,1.8045,1.8045,1.8045,1.7644,1.7687,1.7699,1.7753,1.7773,1.7812,1.783,1.7854,1.7876,1.7923,1.7952,1.7968,1.7994,1.8032,1.8063,1.807,1.8082,1.8088,1.8094,1.8057,1.8052,1.8048,1.8038,1.8091,1.8091,1.813,1.813,1.813]},{"header":{"parameterUnit":"m.s-1","parameterCategory":1,"la1":30.2991,"la2":30.254,"lo1":-89.0895,"lo2":-89.0444,"dy":0.0017,"dx":0.0017,"nx":28,"ny":28,"refTime":"2024-05-26T09:00:00:Z","depth":0,"parameterNumber":3,"parameterNumberName":"V-component_of_WINDS"},"data":[0,0,0,0,0,0,0,0,0,0,0,0,0,0,0,0,0,0,0,0,0,0,0,0,0,0,0,0,0,0,0,0,0,0,0,0,0,0,0,0,0,0,0,0,0,0,0,0,0,0,0,0,0,0,0,0,0,0,5.0537,5.0538,0,5.0633,5.0634,5.0636,5.0578,5.0575,5.0573,5.057,5.0663,5.0668,5.0673,0,0,0,0,0,0,0,0,0,0,0,0,0,5.0297,5.0302,5.0537,5.0538,5.054,5.0633,5.0635,5.0636,5.0579,5.0575,5.0572,5.0569,5.0662,5.0668,5.0674,0,0,0,0,0,0,0,0,0,0,0,0,0,5.0398,5.0303,5.0537,5.0522,5.0522,5.0633,5.0635,5.0636,5.0579,5.0575,5.0571,5.0567,5.066,5.0667,5.0675,5.0804,0,0,5.0698,5.0701,0,0,0,0,0,0,0,0,5.0392,5.0407,5.0523,5.0524,5.0523,5.059,5.0584,5.0692,5.058,5.0557,5.057,5.0565,5.0642,5.0651,5.0678,5.0808,5.0812,5.0698,5.0703,5.0706,5.0708,0,0,0,0,0,0,0,5.0386,5.0402,5.0575,5.0525,5.0525,5.0509,5.0519,5.0604,5.0621,5.0559,5.0555,5.0568,5.0641,5.067,5.0679,5.0813,5.0698,5.0705,5.071,5.0712,5.1051,5.1055,0,0,0,0,0,0,5.038,5.0397,5.0572,5.0578,5.0447,5.0517,5.0527,5.0572,5.062,5.0624,5.0571,5.0565,5.0659,5.0671,5.0682,5.0835,5.0706,5.0713,5.0718,5.1047,5.1052,5.1057,0,0,0,0,0,0,5.0376,5.0397,5.0568,5.0487,5.0507,5.0525,5.0576,5.0577,5.0606,5.0629,5.0631,5.0598,5.0657,5.0672,5.0774,5.0837,5.0717,5.0724,5.1041,5.1048,5.1054,5.1141,0,0,0,0,0,0,5.0369,5.0395,5.0446,5.0488,5.0512,5.066,5.058,5.0581,5.062,5.0612,5.0656,5.0659,5.0655,5.0763,5.0781,5.0845,5.0729,5.1036,5.1044,5.1052,5.1133,5.115,5.1165,0,0,0,0,0,5.0361,5.0466,5.0449,5.0471,5.0576,5.0664,5.0677,5.0672,5.0625,5.0675,5.069,5.0657,5.0827,5.0774,5.0794,5.0861,5.1032,5.1042,5.1052,5.1126,5.1147,5.1165,0,0,0,0,0,0,5.043,5.0472,5.0453,5.0576,5.0617,5.0654,5.0717,5.0695,5.0748,5.0739,5.0728,5.0738,5.0844,5.0863,5.0802,5.0987,5.0922,5.0936,5.0971,5.0991,5.1007,5.1,5.0736,0,0,0,0,0,5.046,5.053,5.0562,5.0667,5.0689,5.07,5.0738,5.073,5.0771,5.0788,5.081,5.085,5.0911,5.0952,5.1011,5.1135,5.1142,5.1191,5.1207,5.1221,5.1233,5.1297,5.1319,5.109,5.109,5.1089,0,0,5.0522,5.0553,5.0598,5.0682,5.0712,5.0782,5.0715,5.0792,5.0843,5.0799,5.0896,5.0914,5.0957,5.107,5.1121,5.1089,5.1298,5.1233,5.1244,5.1249,5.131,5.1331,5.1351,5.1097,5.1095,5.1094,0,0,5.0671,5.0703,5.0793,5.0825,5.0873,5.0879,5.0901,5.0941,5.0951,5.105,5.1017,5.1076,5.1184,5.1216,5.1246,5.1404,5.1375,5.1424,5.1507,5.157,5.1588,5.1604,5.1658,5.1678,5.1436,5.1436,5.1436,0,5.0741,5.0848,5.0842,5.0922,5.0958,5.0922,5.1012,5.1042,5.1106,5.1131,5.1095,5.1228,5.1255,5.1373,5.1412,5.1438,5.146,5.1418,5.1586,5.1602,5.1617,5.1668,5.1689,5.1442,5.1441,5.144,5.144,0,5.0931,5.1005,5.1072,5.1135,5.1179,5.1264,5.1268,5.1313,5.13,5.131,5.1408,5.1439,5.1502,5.153,5.1519,5.1646,5.1625,5.1588,5.1522,5.1644,5.1692,5.1712,5.1449,5.1447,5.1446,5.1444,0,0,5.1127,5.1185,5.121,5.1237,5.1286,5.1342,5.1423,5.1486,5.1524,5.1569,5.1635,5.1726,5.1691,5.1726,5.1717,5.1773,5.1893,5.1728,5.1729,5.1756,5.2033,5.206,5.2083,5.1875,5.1879,5.1882,5.2029,0,5.1277,5.1421,5.1417,5.155,5.1617,5.1583,5.1653,5.1689,5.17,5.1756,5.1766,5.1831,5.1781,5.1801,5.1855,5.1868,5.1948,5.1857,5.1934,5.1937,5.1923,5.2109,5.2138,5.2275,5.2048,5.2051,5.2053,0,5.1472,5.1524,5.1664,5.1702,5.1729,5.1793,5.1849,5.1904,5.1943,5.1947,5.1985,5.1967,5.2046,5.1979,5.2087,5.2024,5.2055,5.2066,5.2071,5.2077,5.2002,5.2118,5.2319,5.2339,5.2083,5.2081,5.2079,0,5.1598,5.1704,5.18,5.1825,5.1872,5.1917,5.1938,5.1973,5.2011,5.2059,5.2082,5.2139,5.2169,5.2212,5.2209,5.2161,5.2318,5.2251,5.2321,5.2321,5.2355,5.2352,5.2562,5.2377,5.2377,5.2376,5.2376,0,5.1766,5.1853,5.1857,5.1917,5.2012,5.2005,5.2098,5.2114,5.2146,5.2206,5.2179,5.2236,5.2229,5.2285,5.2282,5.2371,5.2385,5.2388,5.2386,5.239,5.2389,5.2409,5.2399,5.2382,5.2381,5.238,5.2379,0,5.1923,5.193,5.2033,5.2069,5.2079,5.2148,5.2177,5.2231,5.2239,5.2315,5.2333,5.2344,5.2408,5.241,5.2483,5.2481,5.2589,5.2577,5.2576,5.2573,5.2642,5.2635,5.2871,5.2901,5.2698,5.27,5.2702,0,5.2029,5.2095,5.2137,5.2176,5.22,5.2264,5.2301,5.2296,5.2336,5.2385,5.2433,5.2495,5.2545,5.2649,5.2662,5.2717,5.2706,5.2784,5.2714,5.2714,5.2704,5.27,5.2705,5.2798,5.28,5.2802,5.2803,0,5.2216,5.2215,5.2272,5.233,5.2376,5.2421,5.2462,5.2495,5.2494,5.254,5.2606,5.2644,5.2719,5.278,5.2833,5.2852,5.2827,5.2826,5.2844,5.2848,5.2844,5.2845,5.2612,5.282,5.2818,5.2817,5.2816,5.2816,5.2349,5.2405,5.2443,5.2506,5.2537,5.2576,5.2629,5.2643,5.2699,5.276,5.2753,5.2826,5.286,5.293,5.2953,5.3008,5.2981,5.3009,5.3015,5.3022,5.3029,5.2837,5.3018,5.3018,5.3017,5.3017,5.3017,0,5.2532,5.2555,5.2614,5.2672,5.2721,5.2695,5.2739,5.2781,5.2846,5.2881,5.293,5.3005,5.3063,5.3081,5.3137,5.3178,5.3167,5.3192,5.3189,5.3193,5.3051,5.3028,5.32,5.32,5.32,5.32,5.32,5.32,5.2634,5.2726,5.273,5.2837,5.2858,5.293,5.2957,5.2992,5.302,5.3105,5.3154,5.3166,5.3193,5.3251,5.3302,5.3306,5.3327,5.3356,5.3355,5.3222,5.3203,5.3186,5.3164,5.3361,5.3362,5.3492,5.3493,5.3494]}]]